Showing default

TEMPSAT 1, 1512

Orbit data source: Space-Track

TEMPSAT 1, 1512 is a payload satellite owned by NRL (US) in LEO that was launched on Fri, 13 Aug 1965 UTC via a THOR ABLESTAR launch vehicle from the Air Force Western Test Range (AFWTR). Payloads include a variety of satellites, spacecraft, and rockets equipped with specific instruments for various scientific and technological missions. These include communications satellites like Starlink; space stations such as the ISS; scientific satellites like the Hubble; Earth observation satellites from companies like Planet Labs, Umbra, and HawkEye 360; GPS; miniature CubeSats for education and research; and military/defense satellites.

Loading next visibility...
TEMPSAT 1 details
Identifier
1512, 1965-065E
Orbit
LEO
Last TLE update1 day ago
Origin
Flag of USNRL (US)
ManufacturerNRL
MissionOperational Defense Calibration
Bus & MotorNRL 14", Unknown motor
Mass9 kg wet, 9 kg dry
Launch date (UTC)
1965-08-13 (59 years ago)
Launch vehicle
THOR ABLESTAR
Launch site
Air Force Western Test Range (AFWTR)
Object type
Payload
Rocket body
Debris
Shape & HBRSphere, 0.36 m
Radar Cross Section0.102 m², Small (<0.1 m²)

Expand to show TLE details & history

TLE from 1 day ago
0 TEMPSAT 1
1 01512U 65065E   24355.60956896  .00000059  00000-0  10021-3 0  9990
2 01512  89.9650 213.3965 0069006 336.5140  49.6946 13.33547333887602
Epoch: 2024-12-20T14:37Z
Definitive object data (Epoch: 2024-12-20T14:37:46.758Z)
Latitude26.84926°
Longitude-95.70332°
Altitude1,103.397 km
Speed7.319 km/s
True Right ascension14h 13m 39s
True Declination26° 43' 02"
Sunlit
Object was in daylight at TLE epoch
Visualization TLE readout
Latitude35.58639°
Longitude84.25071°
Altitude1,189.392 km
Speed7.237 km/s
Apparent Right ascension01h 58m 38s
Apparent Declination1° 37' 18"
Sunlit
Object is in full shadow
Visualization observer readout
Local Sidereal Time13:39:59
Azimuth352.991° N
Elevation-48.243°
Doppler factor1
Orbital elements
Apogee altitude1,182.3 km
Perigee altitude1,078.672 km
Semi-major axis7,508.623 km
Eccentricity0.0069006
Inclination89.965°
RAAN213.3965°
Arg. of periapsis336.514°
True anomaly50.301°
Mean anomaly49.6946°
Eccentric anomaly49.99746°
Mean motion3.33582 °/min
BSTAR0.00010021
Orbital period107.92 mins
Loading maneuver chart data...
Loading historical data...
Loading historical data...
Loading historical data...
Loading historical data...
Loading historical data...
Loading historical data...
Loading historical data...

TEMPSAT 1 Visibility forecast

Observer location: undefined°, undefined

Span
Click to sort rows by Start time (UTC) header in descending order
Start Az.
Max El. time (UTC)
Max El. Az.
Max El.
End time (UTC)
End Az.
12 mins2024-12-21 15:48:50.039Z206.243° SW2024-12-21 15:54:50.039Z285.348° WNW34.46°2024-12-21 16:00:50.039Z344.983° N
6 mins2024-12-22 01:21:50.039Z54.001° ENE2024-12-22 01:23:50.039Z72.421° E15.228°2024-12-22 01:27:50.039Z107.948° ESE
13 mins2024-12-22 03:06:50.039Z0.855° NNE2024-12-22 03:12:50.039Z267.403° W44.915°2024-12-22 03:19:50.039Z186.434° SSW
5 mins2024-12-22 04:57:50.039Z306.635° NW2024-12-22 04:59:50.039Z288.466° WNW13.839°2024-12-22 05:02:50.039Z263.163° W
7 mins2024-12-22 13:28:50.039Z101.189° ESE2024-12-22 13:31:50.039Z71.893° E16.862°2024-12-22 13:35:50.039Z34.472° NE
|